Location: Mountain_View
(35.6670°N, 81.4000°W)
Time: 15:00:36
(UTC-05:00)

Daily predictions for brighter satellites

Satellite Brightness Start Highest point End
(mag) Time Altitude Azimuth Time Altitude Azimuth Time Altitude Azimuth
IRAS Rocket 4.2 18:03:37 10° SSE 18:09:07 77° ENE 18:14:43 10° NNW
NOSS 3 (A) 4.4 18:07:54 10° SSW 18:10:38 90° ESE 18:13:33 10° NNE
Meteor 2-2 Rocket 4.4 18:05:24 10° N 18:10:57 50° ENE 18:16:23 10° SSE
ASTRO E2 3.5 18:07:35 10° WSW 18:11:23 44° S 18:15:12 10° ESE
METEOR-M 4.2 18:07:15 10° SSE 18:12:30 60° ENE 18:17:46 10° N
Cosmos 2218 Rocket 4.0 18:06:58 10° N 18:13:06 70° E 18:19:12 10° SSE
Meteor 2-10 4.5 18:08:15 10° NNW 18:13:17 68° W 18:18:25 10° S
Cosmos 1743 Rocket 4.4 18:11:37 10° SSE 18:15:20 28° E 18:19:03 10° NNE
Cosmos 44 4.0 18:12:11 10° SW 18:16:18 45° WNW 18:20:33 10° NNE
NOSS 3-4 (A) 4.0 18:09:36 10° NNW 18:16:36 57° NE 18:24:04 10° SE
NOSS 3-4 (C) 4.0 18:09:42 10° NNW 18:16:42 56° NE 18:24:10 10° SE
SL-14 R/B 4.2 18:12:58 10° SSW 18:16:51 51° W 18:20:42 10° N
Cosmos 1484 Rocket 4.3 18:14:36 10° S 18:18:10 40° W 18:21:44 10° NNW
Cosmos 1328 Rocket 4.2 18:15:56 10° NNE 18:19:51 32° ENE 18:23:44 10° SE
Cosmos 371 Rocket 3.8 18:19:12 10° S 18:23:38 39° ESE 18:28:07 10° NE
Cosmos 2228 Rocket 4.0 18:20:20 10° NNE 18:24:19 28° ENE 18:28:16 10° SE
SMAP 4.2 18:21:23 10° S 18:25:52 49° W 18:30:24 10° NNW
ISS -1.7 18:28:06 10° SSE 18:29:51 14° SE 18:31:11 11° ESE
CZ-4 R/B 4.4 18:27:43 10° SSE 18:31:50 87° ENE 18:35:58 10° NNW
SEDSat Delta rocket 4.4 18:26:16 10° WSW 18:32:57 60° S 18:38:57 12° E
Cosmos 1766 Rocket 4.1 18:30:19 10° SSW 18:34:36 62° W 18:38:53 10° N
Cosmos 2098 Rocket 4.1 18:29:17 10° N 18:34:58 56° E 18:41:48 10° SSE
SL-08 R/B 4.4 18:28:47 10° N 18:34:59 85° E 18:41:05 10° S
Cosmos 2058 3.0 18:34:08 10° S 18:38:11 52° E 18:42:16 10° NNE
Cosmos 1570 Rocket 4.3 18:37:21 10° S 18:42:27 49° ESE 18:47:32 10° NNE
H-2A R/B 3.6 18:39:42 10° SE 18:42:58 28° ENE 18:46:18 10° NNE
COSMOS 2406 3.2 18:39:17 10° SSW 18:45:00 89° WNW 18:50:45 10° NNE
Cosmos 2366 rocket 4.3 18:39:38 10° N 18:45:49 71° W 18:51:55 10° S
Meteor 1-11 4.3 18:40:22 10° S 18:45:57 82° W 18:51:38 10° N
Cosmos 1833 Rocket 4.2 18:43:52 10° SE 18:47:07 16° E 18:47:19 16° E
Meteor 1-27 4.2 18:42:09 10° N 18:47:54 72° E 18:53:41 10° SSE
Cosmos 1455 2.4 18:44:42 10° N 18:48:25 47° E 18:52:04 10° SSE
Cosmos 1151 Rocket 3.3 18:44:24 10° N 18:48:35 43° E 18:52:45 10° SSE
CZ-4 R/B 3.4 18:46:25 10° SSW 18:50:16 34° W 18:54:09 10° NNW
SKYMED 2 4.3 18:46:35 10° N 18:50:50 55° WNW 18:55:04 10° SSW
Cosmos 1821 Rocket 4.3 18:45:17 10° N 18:51:04 40° ENE 18:56:53 10° SSE
Cosmos 1346 Rocket 2.7 18:47:36 10° N 18:51:30 84° W 18:55:22 10° S
YAOGAN 1 3.6 18:49:15 10° S 18:53:25 48° W 18:57:37 10° NNW
Cosmos 1626 3.6 18:50:32 10° SSW 18:54:00 38° W 18:57:30 10° N
Hubble Space Telescope 2.9 18:54:34 10° SSW 18:57:06 16° SSE 18:58:58 12° SE
NOAA 12 4.1 18:55:01 10° SSE 19:00:15 88° W 19:05:32 10° NNW
SL-27 R/B 3.0 18:57:26 10° S 19:00:36 35° ESE 19:00:56 34° E
Nadezhda 3 Rocket 4.0 18:55:46 10° S 19:02:05 85° E 19:08:29 10° N
FengYun 1-2 T 4.4 18:56:51 10° SE 19:02:16 50° ENE 19:07:39 10° N
Cosmos 2151 3.2 19:04:11 10° SSW 19:08:25 70° W 19:12:42 10° N
ERBS 4.3 19:06:16 10° N 19:07:27 16° N 19:07:27 16° N
Cosmos 304 Rocket 4.1 19:08:48 10° S 19:13:14 40° ESE 19:14:11 36° ENE
ALOS 3.3 19:09:46 10° S 19:14:16 48° W 19:18:47 10° NNW
EO 1 Del DPAF 4.4 19:10:43 10° N 19:14:22 44° WNW 19:18:00 10° SW
Thor Agena Rocket 3.7 19:12:20 18° NNE 19:16:05 50° E 19:21:05 10° S
ERS-2 2.2 19:12:34 10° S 19:16:15 80° W 19:19:57 10° NNW
Cosmos 909 Rocket 3.9 19:15:13 10° NNW 19:21:50 74° ENE 19:28:04 10° SE
Cosmos 1934 Rocket 4.0 19:19:06 10° N 19:25:22 57° E 19:31:35 10° SSE
Cosmos 1515 Rocket 4.3 19:24:20 10° NNW 19:28:33 53° W 19:32:45 10° S
CZ-4C R/B 1.9 19:24:41 10° SSW 19:29:39 69° ESE 19:31:21 43° NE
Tiangong 1 3.1 19:29:49 10° W 19:31:09 22° WSW 19:31:09 22° WSW
Cosmos 1340 3.5 19:28:52 10° N 19:36:56 - S 19:31:20 39° N
Cosmos 1605 Rocket 4.3 19:27:59 10° N 19:40:33 - SSE 19:32:52 40° ENE
OAO 3 Rocket 4.3 19:33:08 10° W 19:37:25 36° SSW 19:39:05 27° SSE
Lacrosse 5 1.9 19:34:39 10° SW 19:39:45 79° NW 19:40:55 53° NNE
ASTRO E2 4.0 19:47:58 10° WSW 19:51:07 33° SSW 19:51:07 33° SSW
Cosmos 468 Rocket 4.4 19:49:27 10° SSW 19:54:29 58° WNW 19:56:34 34° N
Cosmos 1898 Rocket 3.5 19:54:38 10° NNW 19:59:21 71° NNW 19:59:21 71° NNW
Cosmos 1814 Rocket 3.9 19:54:42 10° SSW 19:59:56 85° SW 19:59:56 85° SW
ISS -0.9 20:02:53 10° WSW 20:03:52 18° WSW 20:03:52 18° WSW
Cosmos 1763 Rocket 3.8 20:02:25 10° SSW 20:06:37 59° SW 20:06:37 59° SW
Cosmos 2082 Rocket 2.4 20:02:08 10° SSW 20:06:42 60° S 20:06:42 60° S
SEDSat Delta rocket 4.3 20:12:55 10° W 20:19:05 53° SSW 20:19:05 53° SSW
Cosmos 1833 Rocket 3.5 20:24:56 10° SW 20:29:06 46° WSW 20:29:06 46° WSW
Hubble Space Telescope 3.9 20:34:14 10° SW 20:34:20 11° SW 20:34:20 11° SW
